• MPC Preparation (Info)

  • MPEC 2019-H88 : 2019 HP3

    The following Minor Planet Electronic Circular may be linked-to from your own Web pages, but must not otherwise be redistributed electronically.

    A form allowing access to any MPEC is at the bottom of this page.


    Read MPEC 2019-H87 Read MPEC 2019-H89


    M.P.E.C. 2019-H88                                Issued 2019 Apr. 29, 16:56 UT
    
         The Minor Planet Electronic Circulars contain information on unusual
             minor planets and routine data on comets.  They are published
        on behalf of Division F of the International Astronomical Union by the
              Minor Planet Center, Smithsonian Astrophysical Observatory,
                              Cambridge, MA 02138, U.S.A.
    
                 Prepared using the Tamkin Foundation Computer Network
    
                                  MPC@CFA.HARVARD.EDU
                URL https://www.minorplanetcenter.net/    ISSN 1523-6714
    
                                       2019 HP3
    
    Observations:
         K19H03P* C2019 04 26.26586 14 00 47.79 -22 25 52.5          19.4 GVEH088G96
         K19H03P  C2019 04 26.27099 14 00 47.00 -22 24 20.3          18.9 GVEH088G96
         K19H03P  C2019 04 26.28126 14 00 45.42 -22 21 17.0          18.5 GVEH088G96
         K19H03P  C2019 04 26.37718 14 00 31.23 -21 52 14.4          18.8 GVEH088I52
         K19H03P  C2019 04 26.37754 14 00 31.14 -21 52 07.6          19.3 GVEH088I52
         K19H03P  C2019 04 26.37789 14 00 31.13 -21 52 01.1          19.1 GVEH088I52
         K19H03P  C2019 04 26.37825 14 00 31.06 -21 51 54.7          18.6 GVEH088I52
         K19H03P KC2019 04 27.02977513 59 54.64 -18 33 10.7          19.1 GVEH088C95
         K19H03P KC2019 04 27.04421513 59 52.80 -18 28 40.0          18.9 GVEH088C95
         K19H03P  C2019 04 27.20471 13 59 56.34 -17 38 20.4          19.3 GVEH088I52
         K19H03P  C2019 04 27.20501 13 59 56.31 -17 38 14.7          18.3 GVEH088I52
         K19H03P  C2019 04 27.20531 13 59 56.25 -17 38 09.2          18.8 GVEH088I52
         K19H03P  C2019 04 27.20562 13 59 56.20 -17 38 03.9          18.9 GVEH088I52
         K19H03P  C2019 04 27.20592 13 59 56.17 -17 37 58.3          18.8 GVEH088I52
         K19H03P  C2019 04 27.20622 13 59 56.17 -17 37 52.3          18.4 GVEH088I52
         K19H03P KC2019 04 27.48330 13 59 39.41 -16 07 05.5          18.9 VqEH088E23
         K19H03P KC2019 04 27.49719 13 59 37.42 -16 02 46.5          19.1 VqEH088E23
         K19H03P KC2019 04 27.51108 13 59 35.50 -15 58 26.4          19.0 VqEH088E23
         K19H03P KC2019 04 27.79188 13 59 26.43 -14 30 23.8          18.9 GVEH088L29
         K19H03P KC2019 04 27.79639 13 59 25.89 -14 28 59.2          18.9 GVEH088L29
         K19H03P KC2019 04 27.80090 13 59 25.34 -14 27 34.9          19.0 GVEH088L29
         K19H03P KC2019 04 27.80540 13 59 24.81 -14 26 11.2          19.1 GVEH088L29
         K19H03P KC2019 04 27.82919 13 59 20.17 -14 22 54.7          18.8 GVEH088595
         K19H03P KC2019 04 27.83377 13 59 19.58 -14 21 27.8          18.4 GVEH088595
         K19H03P KC2019 04 27.84292 13 59 18.55 -14 18 37.1          19.0 GVEH088595
         K19H03P KC2019 04 27.85780 13 59 16.77 -14 13 57.0          19.2 GVEH088595
         K19H03P KC2019 04 27.89676913 59 11.92 -14 01 40.8          19.6 GVEH088L01
         K19H03P KC2019 04 27.89770613 59 11.83 -14 01 23.4          19.5 GVEH088L01
         K19H03P KC2019 04 27.89890213 59 11.70 -14 01 00.7          19.3 GVEH088L01
         K19H03P KC2019 04 27.90009613 59 11.56 -14 00 38.5          19.6 GVEH088L01
         K19H03P KC2019 04 27.90103113 59 11.42 -14 00 20.9          19.5 GVEH088L01
         K19H03P  C2019 04 28.22755 13 58 54.88 -12 16 12.7          19.4 GVEH088I52
         K19H03P  C2019 04 28.22785 13 58 54.84 -12 16 06.8          18.7 GVEH088I52
         K19H03P  C2019 04 28.22815 13 58 54.81 -12 16 01.2          18.7 GVEH088I52
         K19H03P  C2019 04 28.22845 13 58 54.74 -12 15 55.3          19.0 GVEH088I52
         K19H03P KC2019 04 28.87118 13 58 19.03 -08 51 44.3          18.6 RVEH088K63
         K19H03P KC2019 04 28.87315 13 58 18.77 -08 51 07.7          18.6 RVEH088K63
         K19H03P KC2019 04 28.87699 13 58 18.38 -08 49 53.6          18.5 RVEH088K63
         K19H03P KC2019 04 28.88257813 58 17.90 -08 48 08.2          18.5 GVEH088K41
         K19H03P KC2019 04 28.88418313 58 17.67 -08 47 37.6          18.4 GVEH088K41
         K19H03P KC2019 04 28.88587213 58 17.43 -08 47 06.5          18.5 GVEH088K41
         K19H03P KC2019 04 28.88764413 58 17.24 -08 46 32.5          18.7 GVEH088K41
         K19H03P KC2019 04 28.98403 13 58 19.13 -08 10 44.9          18.7 VUEH088X31
         K19H03P KC2019 04 28.99347 13 58 18.07 -08 07 46.0          19.2 VUEH088X31
         K19H03P KC2019 04 29.00203 13 58 17.18 -08 05 03.6          18.9 VUEH088X31
         K19H03P  C2019 04 29.14389 13 58 09.12 -07 24 09.3          18.5 GVEH088I52
         K19H03P  C2019 04 29.14407 13 58 09.12 -07 24 05.9          19.4 GVEH088I52
         K19H03P  C2019 04 29.14425 13 58 09.07 -07 24 02.5          19.1 GVEH088I52
         K19H03P  C2019 04 29.14444 13 58 09.03 -07 23 58.8          19.5 GVEH088I52
    
    Observer details:
    595 Farra dIsonzo.  Observers U. Montanar, N. Moretta, E. Pettarin.
        Measurer N. Moretta.  0.61-m f/4.5 reflector + CCD.
    C95 SATINO Remote Observatory, Haute Provence.  Observer J. Jahn.  0.60-m
        f/3.2 Newtonian reflector + CCD.
    E23 Arcadia.  Observer A. Hidas.  0.35-m f/1.9 reflector + CCD.
    G96 Mt. Lemmon Survey.  Observer B. M. Africano.  Measurers B. M. Africano,
        E. J. Christensen, G. A. Farneth, D. C. Fuls, A. R. Gibbs, A. D. Grauer,
        H. Groeller, R. A. Kowalski, S. M. Larson, G. J. Leonard, T. A. Pruyne,
        D. Rankin, R. L. Seaman, F. C. Shelly.  1.5-m reflector + 10K CCD.
    I52 Steward Observatory, Mt. Lemmon Station.  Observers D. C. Fuls,
        H. Groeller.  Measurers B. M. Africano, E. J. Christensen, G. A. Farneth,
        D. C. Fuls, A. R. Gibbs, A. D. Grauer, H. Groeller, R. A. Kowalski,
        S. M. Larson, G. J. Leonard, T. A. Pruyne, D. Rankin, R. L. Seaman,
        F. C. Shelly.  1.0-m reflector + CCD.
    K41 Vegaquattro Astronomical Observatory, Novi Ligure.  Observer V. Luna.
        0.3-m Schmidt-Cassegrain + CCD.
    K63 G. Pascoli Observatory, Castelvecchio Pascoli.  Observer R. Bacci.
        0.41-m f/3.2 Newtonian reflector + CCD.
    L01 Visnjan Observatory, Tican.  Observer K. Korlevic.  1.0-m f/2.9 reflector
        + CCD.
    L29 Drebach-South Observatory, Windhoek.  Observers G. Lehmann, K. Lehmann.
        0.4-m f/3.6 reflector + CCD.
    X31 Galileo Galilei Observatory, Oro Verde.  Observers C. Fornari,
        E. Reisenauer, J. Alonso, A. Lescano.  Measurer C. Fornari.  0.35-m f/11
        Schmidt-Cassegrain + CCD.
    
    Orbital elements:
    2019 HP3                                                 Earth MOID = 0.0356 AU
    Epoch 2019 Apr. 27.0 TT = JDT 2458600.5                 MPC
    M 183.06011              (2000.0)            P               Q
    n   1.04556997     Peri.  176.31221     +0.83292950     -0.54124444
    a   0.9613923      Node   217.21305     +0.50271521     +0.82713576
    e   0.0845936      Incl.   10.98590     +0.23131335     +0.15133040
    P   0.94           H   25.8           G   0.15           U   6
    Residuals in seconds of arc
    190426 G96  0.0   0.3+    190427 E23  0.1+  0.3+    190428 I52  0.2-  0.1-
    190426 G96  0.3-  0.5+    190427 L29  0.3-  0.2-    190428 K63  0.2+  0.0
    190426 G96  0.7-  0.6-    190427 L29  0.3-  0.2+    190428 K63  0.1-  0.9-
    190426 I52  0.4+  0.3-    190427 L29  0.3-  0.2+    190428 K63  1.0+  0.1+
    190426 I52  0.2-  0.1-    190427 L29  0.0   0.2-    190428 K41  0.4+  0.5+
    190426 I52  0.4+  0.0     190427 595  0.7+  0.3+    190428 K41  0.1-  0.5+
    190426 I52  0.1+  0.2-    190427 595  0.3-  1.2+    190428 K41  0.6-  0.6-
    190427 C95  0.3-  0.2-    190427 595  0.0   0.0     190428 K41  0.2-  0.3-
    190427 C95  0.2+  0.3+    190427 595  0.3-  0.2+    190428 X31  0.9+  0.1+
    190427 I52  0.1-  0.1-    190427 L01  0.4-  0.2+    190428 X31  0.4-  0.0
    190427 I52  0.1+  0.1+    190427 L01  0.0   0.1-    190429 X31  0.1-  0.0
    190427 I52  0.2-  0.0     190427 L01  0.4+  0.0     190429 I52  0.2-  0.1+
    190427 I52  0.3-  0.4-    190427 L01  0.6+  0.4-    190429 I52  0.1+  0.1+
    190427 I52  0.2-  0.3-    190427 L01  0.3+  0.4-    190429 I52  0.3-  0.1+
    190427 I52  0.4+  0.1+    190428 I52  0.0   0.5-    190429 I52  0.6-  0.2+
    190427 E23  0.9+  0.3+    190428 I52  0.0   0.3-
    190427 E23  0.3-  0.0     190428 I52  0.2+  0.4-
    
    Ephemeris:
    2019 HP3                 a,e,i = 0.96, 0.08, 11                  q = 0.8801
    Date    TT    R. A. (2000) Decl.     Delta      r     Elong.  Phase     V
    2019 03 30    14 23 28.7 -73 54 53   0.1058  1.0354   107.6    66.8    23.4
    ...
    2019 04 14    14 14 10.5 -61 11 22   0.06212 1.0415   127.2    50.1    21.7
    ...
    2019 04 22    14 05 16.4 -41 01 42   0.04291 1.0427   150.8    28.0    20.3
    ...
    2019 04 28    13 59 02.4 -13 25 49   0.03605 1.0425   175.1     4.8    19.1
    2019 04 29    13 58 06.2 -08 07 47   0.03595 1.0424   171.4     8.3    19.2
    2019 04 30    13 57 12.2 -02 51 00   0.03617 1.0423   166.2    13.3    19.5
    ...
    2019 05 06    13 52 48.8 +24 03 40   0.04351 1.0411   137.3    41.1    20.7
    ...
    2019 05 14    13 50 10.2 +43 31 05   0.06253 1.0381   114.6    62.2    22.1
    ...
    2019 05 29    13 52 32.8 +56 56 14   0.1039  1.0288    95.6    78.6    23.7
    
    A. U. Tomatic                (C) Copyright 2019 MPC           M.P.E.C. 2019-H88
    

    Read MPEC 2019-H87 Read MPEC 2019-H89


    MPEC number:

    Enter an MPEC number in one of the following forms:

    • 1997-B01 (the full form)
    • J97B01 (the packed version of the full form)
    • B01 (the abbreviated form)